SCP
0 0 0 0 0 0 0 0 0 0 0 0 0 0 0 0 0 0 0 0 0 0 0 0 0 0 0 0 0 0 0 0 0 0 0 0 0 0 0 0 0 0 0
0 0 0 0 0 -0 0 0 0 0 0 0 0 0 0 0 0 0 0 1 0 0 0 0 0 0 0 0 0 0 0 0 0 0 0 0 0 0 0 0 0 0 0
0 0 -0 0 -0 -0 0 0 0 0 0 0 0 0 0 0 0 0 0 0 0 0 0 0 0 0 0 0 0 0 0 0 0 0 0 0 0 0 0 0 0 0 0
0 0 -0 -0 -0 -0 0 0 0 0 0 0 0 0 0 0 0 0 0 0 0 0 0 0 0 0 0 0 0 0 0 0 0 0 0 0 0 0 0 0 0 0 0
0 -0 0 -0 -0 -0 0 0 0 0 0 0 0 0 0 0 0 0 0 0 0 0 0 0 0 0 0 0 0 0 0 0 0 0 0 0 0 0 0 0 0 0 0
-0 0 0 0 0 -0 0 0 0 0 0 0 0 0 0 0 0 0 0 0 0 0 0 0 0 0 0 0 0 0 0 0 0 0 0 0 0 0 0 0 0 0 0
0 -0 -0 0 0 0 0 0 0 0 0 0 0 0 0 0 0 0 0 0 0 0 0 0 0 0 0 0 0 0 0 0 0 0 0 0 0 0 0 0 0 0 0
-0 -0 0 0 0 0 0 0 0 0 0 0 0 0 0 0 0 0 0 0 0 0 0 0 0 0 0 0 0 0 0 0 0 0 0 0 0 0 0 0 0 0 0
0 0 -0 -0 -0 0 0 0 0 0 0 0 0 0 -0 -0 0 0 0 0 0 0 0 0 -0 0 0 0 0 0 0 0 0 0 0 0 0 0 0 0 0 0 0
-0 0 0 0 0 0 0 0 0 0 0 0 0 -0 0 0 0 -0 0 0 -0 -0 0 0 0 0 0 0 0 0 0 0 0 0 0 0 0 0 0 0 0 0 0
0 0 0 0 0 0 0 0 0 0 0 0 0 0 0 0 0 0 0 0 0 0 0 0 0 0 0 0 0 0 0 0 0 0 0 0 0 0 0 0 0 0 0
0 0 0 0 0 0 0 0 0 0 0 0 -0 -0 -0 0 0 0 0 0 0 0 0 0 0 0 0 0 0 0 0 0 0 0 0 0 0 0 0 0 0 0 0
0 0 0 0 0 0 0 0 0 0 0 -0 0 0 0 0 0 0 0 0 0 0 0 0 0 0 0 0 0 0 0 0 0 0 0 0 0 0 0 0 0 0 0
-0 -0 -0 0 0 0 0 -0 0 0 -0 0 0 0 0 0 0 0 0 0 0 0 0 0 0 0 0 0 0 0 0 0 0 0 0 0 0 0 0 0 0 0 0
-0 -0 -0 -0 -0 -0 -0 -0 -0 0 0 0 0 0 0 0 0 0 0 0 0 0 0 0 0 0 0 0 0 0 0 0 0 0 0 0 0 0 0 0 0 0 0
0 0 0 0 0 0 0 0 0 0 0 0 0 0 0 0 0 0 0 0 0 0 0 0 0 0 0 0 0 0 0 0 0 0 0 0 0 0 0 0 0 0 0
0 0 0 0 0 0 0 0 0 0 0 0 0 0 0 0 0 0 0 0 0 0 0 0 0 0 0 0 0 0 0 0 0 0 0 0 0 0 0 0 0 0 0
-0 -0 0 0 0 0 0 0 0 0 0 0 0 0 0 0 0 0 0 0 0 0 0 0 0 0 0 0 0 0 0 0 0 0 0 0 0 0 0 0 0 0 0
-0 0 0 0 0 0 0 0 0 0 0 0 0 0 0 0 0 0 0 0 0 0 0 0 0 0 0 0 0 0 0 0 0 0 0 0 0 0 0 0 0 0 0
0 0 0 0 0 0 0 0 0 0 0 0 0 0 0 0 0 0 0 0 0 0 0 0 0 0 0 0 0 0 0 0 0 0 0 0 0 0 0 0 0 0 0
0 0 0 0 0 0 0 0 0 0 0 0 0 0 0 0 0 0 0 0 0 0 0 0 0 0 0 0 0 0 0 0 0 0 0 0 0 0 0 0 0 0 0
0 0 0 0 0 0 0 0 0 0 0 0 0 0 0 0 0 0 0 0 0 0 0 0 0 0 0 0 0 0 0 0 0 0 0 0 0 0 0 0 0 0 0
0 0 0 0 0 0 0 0 0 0 0 0 0 0 0 0 0 0 0 0 0 0 0 0 0 0 0 0 0 0 0 0 0 0 0 0 0 0 0 0 0 0 0
0 0 0 0 0 0 0 0 0 0 0 0 0 0 0 0 0 0 0 0 0 0 0 0 0 0 0 0 0 0 0 0 0 0 0 0 0 0 0 0 0 0 0
0 0 0 0 0 0 0 0 0 0 0 0 0 0 0 0 0 0 0 0 0 0 0 0 0 0 0 0 0 0 0 0 0 0 0 0 0 0 0 0 0 0 0
0 0 0 0 0 0 0 0 0 0 0 0 0 0 0 0 0 0 0 0 0 0 0 0 0 0 0 0 0 0 0 0 0 0 0 0 0 0 0 0 0 0 0
Wind_Speed_500mb
56 33 28 47 44 41 36 63 61 62 69 71 71 66 79 67 78 76 83 73 62 60 58 53 46 44 43 37 35 32 29 25 22 23 24 24 28 34 28 35 38 38 41
39 35 46 51 43 43 64 44 50 59 73 90 79 79 62 66 66 61 64 65 58 57 57 55 53 46 41 39 39 37 31 30 30 27 32 30 37 41 40 39 40 45 41
36 47 49 61 46 32 62 71 75 70 58 75 71 69 49 41 63 55 53 55 58 54 53 51 50 44 38 34 32 31 31 31 33 33 34 20 31 34 42 47 45 45 38
44 56 45 51 48 37 43 58 66 79 80 66 59 54 57 52 54 56 56 50 52 50 43 40 40 37 35 37 34 29 33 36 40 44 51 53 44 22 26 49 44 40 35
24 26 31 37 52 40 42 40 59 71 63 68 64 63 54 50 48 47 51 51 47 45 37 32 33 26 29 31 28 29 40 41 45 47 45 40 38 40 29 34 48 40 37
26 19 19 25 43 38 53 57 55 52 55 66 59 61 55 43 42 48 38 39 42 35 46 45 38 38 42 44 44 42 38 43 48 44 37 35 40 45 48 45 37 39 44
32 36 36 37 40 33 51 83 62 50 48 52 50 37 26 30 29 26 30 29 42 50 60 62 61 48 55 50 40 39 46 53 56 46 45 53 51 44 46 50 44 45 37
36 36 44 34 46 41 41 64 66 45 25 32 35 25 15 9 17 20 42 40 45 53 36 49 57 51 56 56 57 61 63 53 58 56 61 60 51 43 42 49 49 43 40
46 40 30 32 35 49 34 37 49 44 33 20 8 22 25 28 24 38 43 52 47 42 52 49 58 60 57 64 66 64 63 64 70 77 66 58 52 51 47 51 46 45 43
48 48 44 41 37 29 30 39 41 39 20 27 25 37 40 44 44 40 36 39 40 42 46 42 44 49 51 54 59 60 57 58 57 63 64 56 55 55 48 48 47 45 43
46 47 49 45 39 36 34 34 30 24 19 16 16 19 18 14 17 21 24 27 30 35 39 42 47 50 55 58 57 56 55 55 54 52 54 51 53 56 52 48 47 47 46
41 43 47 45 43 43 43 41 35 30 25 19 13 10 7 10 12 16 19 23 26 29 32 36 40 43 45 44 44 46 52 56 53 59 53 50 52 54 52 49 49 48 47
40 40 41 41 38 39 39 36 33 29 23 17 11 6 2 7 10 14 16 20 25 28 30 34 35 39 41 45 47 48 51 55 53 55 55 55 56 58 53 51 50 50 47
40 38 37 35 31 32 31 28 26 24 20 16 14 12 11 13 16 19 19 20 24 26 29 31 33 35 38 41 44 44 45 49 52 56 58 62 60 55 52 53 53 51 47
34 29 27 23 24 23 21 19 18 16 14 12 12 13 15 16 17 18 19 21 24 27 30 32 34 33 36 38 37 40 44 49 51 53 54 56 56 54 55 57 53 49 48
24 22 18 15 15 13 14 12 11 12 11 13 15 17 19 22 24 26 27 27 28 30 31 32 34 36 35 37 40 41 43 47 52 54 55 56 55 54 54 51 50 49 47
19 15 11 10 9 9 9 8 12 14 16 18 19 21 27 29 28 28 29 32 32 34 35 36 38 40 40 39 41 43 46 48 49 50 50 53 53 53 52 52 53 52 51
20 13 7 4 1 8 11 13 15 18 22 24 25 29 30 33 37 36 37 38 39 41 41 40 41 45 44 42 44 48 52 53 53 55 55 54 55 54 53 53 53 50 47
11 5 6 7 5 7 12 16 20 24 25 30 32 35 36 36 38 42 45 42 42 41 45 46 48 45 45 45 49 52 56 57 57 58 58 58 55 55 56 55 51 50 43
3 2 7 7 11 18 24 28 29 31 35 38 43 46 45 44 43 43 48 54 45 40 38 40 42 48 48 46 51 55 61 59 59 62 63 61 58 58 58 57 55 51 46
10 16 20 21 24 28 33 37 39 39 43 43 46 47 46 44 43 46 49 51 47 45 43 42 40 45 48 49 54 58 63 63 64 66 68 65 63 64 62 63 58 52 41
16 19 22 25 28 31 35 36 37 39 42 44 46 48 51 52 51 51 53 54 51 51 49 47 47 42 44 49 50 54 60 66 66 67 66 65 61 62 62 63 60 49 46
16 16 18 22 23 25 28 33 37 40 39 40 38 41 45 46 49 54 56 55 55 50 48 49 51 49 39 40 46 44 41 56 61 65 61 62 55 53 57 62 61 50 54
16 20 25 28 30 28 30 35 37 38 41 42 42 43 43 43 43 46 49 55 56 49 45 46 44 46 45 43 38 39 37 40 54 61 57 59 52 49 56 57 59 60 59
21 25 29 33 35 36 39 42 45 44 42 43 46 46 46 48 49 48 47 47 46 40 47 53 58 59 59 51 48 46 42 41 38 50 63 62 57 53 56 56 56 63 60
24 28 32 37 42 46 49 50 48 44 43 44 46 50 53 55 54 53 52 45 43 46 44 44 43 46 46 49 49 46 41 42 42 37 50 63 64 63 63 64 62 59 59
Wind_Direction_500mb
245 253 260 238 238 245 253 235 240 227 209 208 193 178 186 182 196 202 204 204 196 190 189 189 187 194 200 204 204 202 203 204 204 214 221 221 232 237 247 243 247 244 253
242 261 248 241 238 250 243 232 199 191 195 195 197 204 200 194 191 193 192 193 188 186 186 189 194 198 206 208 208 204 205 207 209 219 223 231 234 241 242 238 241 243 248
246 257 246 232 224 243 246 258 219 210 198 192 187 186 175 194 184 189 190 197 196 192 192 193 197 202 208 211 220 233 242 235 232 233 232 205 243 230 232 232 228 240 236
255 257 228 221 221 222 234 237 231 209 196 191 181 177 183 185 187 187 191 191 200 196 196 201 207 208 211 218 222 226 239 238 248 248 243 245 257 223 198 206 216 226 242
205 184 207 217 202 208 231 237 166 187 178 178 177 179 178 180 184 183 181 184 184 189 186 194 209 225 222 221 228 232 222 226 234 238 245 243 236 235 208 211 213 222 245
106 107 75 215 216 229 240 195 163 141 159 159 148 157 160 161 167 187 200 212 212 213 219 216 226 233 235 241 260 256 237 243 239 247 240 240 235 246 231 226 228 258 269
86 96 101 85 118 86 164 176 175 147 159 141 130 133 131 175 168 183 197 231 229 231 233 240 234 244 252 256 257 254 252 252 246 244 253 256 258 251 241 244 252 262 254
80 73 97 113 101 98 91 165 180 183 153 121 144 132 143 200 186 203 224 239 234 238 254 241 235 238 243 241 264 262 251 248 244 240 246 251 249 237 232 242 259 255 255
76 76 75 75 92 99 91 91 166 185 192 186 212 175 234 239 229 232 232 240 234 248 234 248 238 242 252 249 262 260 253 248 242 243 246 251 238 229 243 246 242 247 254
84 85 84 77 79 84 87 93 142 165 176 207 220 213 247 254 252 245 244 239 234 243 240 242 241 248 254 258 261 262 261 258 253 248 245 245 235 235 243 238 249 250 253
86 87 87 90 93 95 97 103 121 140 154 165 180 198 216 234 243 241 239 240 245 244 246 248 249 251 252 256 256 254 256 255 258 247 244 240 236 237 236 242 246 251 256
90 86 86 89 89 90 94 96 105 114 117 121 131 143 156 213 232 242 249 257 259 258 260 254 253 255 258 260 261 256 254 250 249 246 243 239 235 233 241 245 247 252 258
95 89 86 81 80 78 80 81 84 85 83 80 76 69 291 286 285 288 290 288 285 276 270 268 265 262 263 263 261 256 253 253 253 247 242 243 243 241 240 244 248 252 253
91 87 84 83 82 81 78 73 71 66 62 54 44 31 12 354 343 328 310 296 282 279 276 272 270 272 270 265 263 260 255 252 250 246 246 245 243 240 243 247 249 251 250
95 98 96 87 74 69 66 64 61 56 47 34 21 12 7 356 349 338 330 318 306 293 287 283 278 275 274 274 270 267 257 255 251 250 247 244 242 242 245 245 246 245 248
110 110 112 107 94 79 62 50 42 37 28 9 -0 351 340 333 331 325 323 318 308 299 286 280 282 280 274 270 270 266 258 255 256 252 248 247 247 247 247 248 247 250 252
139 133 130 102 82 74 62 37 15 4 351 349 338 333 328 324 318 314 309 305 300 296 293 285 278 272 272 273 274 271 264 260 255 253 251 250 249 247 247 249 249 250 251
157 154 164 147 110 8 0 359 339 340 331 324 322 322 317 315 314 311 307 302 298 294 288 282 275 271 269 268 267 267 265 261 257 254 251 251 252 249 247 246 248 247 249
159 197 224 247 303 329 319 320 320 316 314 313 315 311 309 311 312 310 309 303 296 293 293 289 284 276 267 267 265 266 264 261 257 255 252 251 248 248 247 245 243 246 241
163 260 271 302 317 330 328 321 324 328 319 319 313 312 315 313 310 308 309 306 308 300 292 286 282 280 276 264 266 260 260 259 257 254 251 247 249 247 246 247 247 246 243
283 285 295 301 310 310 306 310 315 312 301 301 297 301 310 317 317 316 310 303 307 308 300 290 283 281 277 274 264 264 261 256 255 252 251 251 249 250 247 248 247 248 240
281 287 297 302 302 304 305 304 299 296 296 296 297 300 304 308 309 307 306 299 292 295 302 304 296 285 287 284 273 265 262 260 260 257 254 253 250 248 249 248 249 239 229
249 267 282 290 287 280 277 278 284 290 293 294 296 296 296 298 299 299 301 303 307 304 296 299 300 296 295 292 293 282 265 262 258 260 259 260 253 251 244 241 242 230 226
294 298 298 301 302 297 290 289 296 302 303 304 303 301 299 300 299 297 297 300 302 300 300 302 306 302 302 292 291 295 288 265 255 259 260 253 256 250 245 236 233 230 225
300 301 303 304 307 309 308 309 309 306 303 302 303 305 304 302 302 299 299 301 301 295 291 286 285 289 291 297 301 298 289 286 276 255 261 255 254 249 236 233 228 224 223
309 311 311 312 313 313 312 311 310 308 305 303 306 307 306 305 304 305 303 301 299 302 295 288 292 288 280 280 281 283 283 281 279 260 256 254 253 249 240 233 230 226 225
Wind_Speed_850mb
56 33 28 47 44 41 36 63 61 62 69 71 71 66 79 67 78 76 83 73 62 60 58 53 46 44 43 37 35 32 29 25 22 23 24 24 28 34 28 35 38 38 41
39 35 46 51 43 43 64 44 50 59 73 90 79 79 62 66 66 61 64 65 58 57 57 55 53 46 41 39 39 37 31 30 30 27 32 30 37 41 40 39 40 45 41
36 47 49 61 46 32 62 71 75 70 58 75 71 69 49 41 63 55 53 55 58 54 53 51 50 44 38 34 32 31 31 31 33 33 34 20 31 34 42 47 45 45 38
44 56 45 51 48 37 43 58 66 79 80 66 59 54 57 52 54 56 56 50 52 50 43 40 40 37 35 37 34 29 33 36 40 44 51 53 44 22 26 49 44 40 35
24 26 31 37 52 40 42 40 59 71 63 68 64 63 54 50 48 47 51 51 47 45 37 32 33 26 29 31 28 29 40 41 45 47 45 40 38 40 29 34 48 40 37
26 19 19 25 43 38 53 57 55 52 55 66 59 61 55 43 42 48 38 39 42 35 46 45 38 38 42 44 44 42 38 43 48 44 37 35 40 45 48 45 37 39 44
32 36 36 37 40 33 51 83 62 50 48 52 50 37 26 30 29 26 30 29 42 50 60 62 61 48 55 50 40 39 46 53 56 46 45 53 51 44 46 50 44 45 37
36 36 44 34 46 41 41 64 66 45 25 32 35 25 15 9 17 20 42 40 45 53 36 49 57 51 56 56 57 61 63 53 58 56 61 60 51 43 42 49 49 43 40
46 40 30 32 35 49 34 37 49 44 33 20 8 22 25 28 24 38 43 52 47 42 52 49 58 60 57 64 66 64 63 64 70 77 66 58 52 51 47 51 46 45 43
48 48 44 41 37 29 30 39 41 39 20 27 25 37 40 44 44 40 36 39 40 42 46 42 44 49 51 54 59 60 57 58 57 63 64 56 55 55 48 48 47 45 43
46 47 49 45 39 36 34 34 30 24 19 16 16 19 18 14 17 21 24 27 30 35 39 42 47 50 55 58 57 56 55 55 54 52 54 51 53 56 52 48 47 47 46
41 43 47 45 43 43 43 41 35 30 25 19 13 10 7 10 12 16 19 23 26 29 32 36 40 43 45 44 44 46 52 56 53 59 53 50 52 54 52 49 49 48 47
40 40 41 41 38 39 39 36 33 29 23 17 11 6 2 7 10 14 16 20 25 28 30 34 35 39 41 45 47 48 51 55 53 55 55 55 56 58 53 51 50 50 47
40 38 37 35 31 32 31 28 26 24 20 16 14 12 11 13 16 19 19 20 24 26 29 31 33 35 38 41 44 44 45 49 52 56 58 62 60 55 52 53 53 51 47
34 29 27 23 24 23 21 19 18 16 14 12 12 13 15 16 17 18 19 21 24 27 30 32 34 33 36 38 37 40 44 49 51 53 54 56 56 54 55 57 53 49 48
24 22 18 15 15 13 14 12 11 12 11 13 15 17 19 22 24 26 27 27 28 30 31 32 34 36 35 37 40 41 43 47 52 54 55 56 55 54 54 51 50 49 47
19 15 11 10 9 9 9 8 12 14 16 18 19 21 27 29 28 28 29 32 32 34 35 36 38 40 40 39 41 43 46 48 49 50 50 53 53 53 52 52 53 52 51
20 13 7 4 1 8 11 13 15 18 22 24 25 29 30 33 37 36 37 38 39 41 41 40 41 45 44 42 44 48 52 53 53 55 55 54 55 54 53 53 53 50 47
11 5 6 7 5 7 12 16 20 24 25 30 32 35 36 36 38 42 45 42 42 41 45 46 48 45 45 45 49 52 56 57 57 58 58 58 55 55 56 55 51 50 43
3 2 7 7 11 18 24 28 29 31 35 38 43 46 45 44 43 43 48 54 45 40 38 40 42 48 48 46 51 55 61 59 59 62 63 61 58 58 58 57 55 51 46
10 16 20 21 24 28 33 37 39 39 43 43 46 47 46 44 43 46 49 51 47 45 43 42 40 45 48 49 54 58 63 63 64 66 68 65 63 64 62 63 58 52 41
16 19 22 25 28 31 35 36 37 39 42 44 46 48 51 52 51 51 53 54 51 51 49 47 47 42 44 49 50 54 60 66 66 67 66 65 61 62 62 63 60 49 46
16 16 18 22 23 25 28 33 37 40 39 40 38 41 45 46 49 54 56 55 55 50 48 49 51 49 39 40 46 44 41 56 61 65 61 62 55 53 57 62 61 50 54
16 20 25 28 30 28 30 35 37 38 41 42 42 43 43 43 43 46 49 55 56 49 45 46 44 46 45 43 38 39 37 40 54 61 57 59 52 49 56 57 59 60 59
21 25 29 33 35 36 39 42 45 44 42 43 46 46 46 48 49 48 47 47 46 40 47 53 58 59 59 51 48 46 42 41 38 50 63 62 57 53 56 56 56 63 60
24 28 32 37 42 46 49 50 48 44 43 44 46 50 53 55 54 53 52 45 43 46 44 44 43 46 46 49 49 46 41 42 42 37 50 63 64 63 63 64 62 59 59
Wind_Direction_850mb
245 253 260 238 238 245 253 235 240 227 209 208 193 178 186 182 196 202 204 204 196 190 189 189 187 194 200 204 204 202 203 204 204 214 221 221 232 237 247 243 247 244 253
242 261 248 241 238 250 243 232 199 191 195 195 197 204 200 194 191 193 192 193 188 186 186 189 194 198 206 208 208 204 205 207 209 219 223 231 234 241 242 238 241 243 248
246 257 246 232 224 243 246 258 219 210 198 192 187 186 175 194 184 189 190 197 196 192 192 193 197 202 208 211 220 233 242 235 232 233 232 205 243 230 232 232 228 240 236
255 257 228 221 221 222 234 237 231 209 196 191 181 177 183 185 187 187 191 191 200 196 196 201 207 208 211 218 222 226 239 238 248 248 243 245 257 223 198 206 216 226 242
205 184 207 217 202 208 231 237 166 187 178 178 177 179 178 180 184 183 181 184 184 189 186 194 209 225 222 221 228 232 222 226 234 238 245 243 236 235 208 211 213 222 245
106 107 75 215 216 229 240 195 163 141 159 159 148 157 160 161 167 187 200 212 212 213 219 216 226 233 235 241 260 256 237 243 239 247 240 240 235 246 231 226 228 258 269
86 96 101 85 118 86 164 176 175 147 159 141 130 133 131 175 168 183 197 231 229 231 233 240 234 244 252 256 257 254 252 252 246 244 253 256 258 251 241 244 252 262 254
80 73 97 113 101 98 91 165 180 183 153 121 144 132 143 200 186 203 224 239 234 238 254 241 235 238 243 241 264 262 251 248 244 240 246 251 249 237 232 242 259 255 255
76 76 75 75 92 99 91 91 166 185 192 186 212 175 234 239 229 232 232 240 234 248 234 248 238 242 252 249 262 260 253 248 242 243 246 251 238 229 243 246 242 247 254
84 85 84 77 79 84 87 93 142 165 176 207 220 213 247 254 252 245 244 239 234 243 240 242 241 248 254 258 261 262 261 258 253 248 245 245 235 235 243 238 249 250 253
86 87 87 90 93 95 97 103 121 140 154 165 180 198 216 234 243 241 239 240 245 244 246 248 249 251 252 256 256 254 256 255 258 247 244 240 236 237 236 242 246 251 256
90 86 86 89 89 90 94 96 105 114 117 121 131 143 156 213 232 242 249 257 259 258 260 254 253 255 258 260 261 256 254 250 249 246 243 239 235 233 241 245 247 252 258
95 89 86 81 80 78 80 81 84 85 83 80 76 69 291 286 285 288 290 288 285 276 270 268 265 262 263 263 261 256 253 253 253 247 242 243 243 241 240 244 248 252 253
91 87 84 83 82 81 78 73 71 66 62 54 44 31 12 354 343 328 310 296 282 279 276 272 270 272 270 265 263 260 255 252 250 246 246 245 243 240 243 247 249 251 250
95 98 96 87 74 69 66 64 61 56 47 34 21 12 7 356 349 338 330 318 306 293 287 283 278 275 274 274 270 267 257 255 251 250 247 244 242 242 245 245 246 245 248
110 110 112 107 94 79 62 50 42 37 28 9 -0 351 340 333 331 325 323 318 308 299 286 280 282 280 274 270 270 266 258 255 256 252 248 247 247 247 247 248 247 250 252
139 133 130 102 82 74 62 37 15 4 351 349 338 333 328 324 318 314 309 305 300 296 293 285 278 272 272 273 274 271 264 260 255 253 251 250 249 247 247 249 249 250 251
157 154 164 147 110 8 0 359 339 340 331 324 322 322 317 315 314 311 307 302 298 294 288 282 275 271 269 268 267 267 265 261 257 254 251 251 252 249 247 246 248 247 249
159 197 224 247 303 329 319 320 320 316 314 313 315 311 309 311 312 310 309 303 296 293 293 289 284 276 267 267 265 266 264 261 257 255 252 251 248 248 247 245 243 246 241
163 260 271 302 317 330 328 321 324 328 319 319 313 312 315 313 310 308 309 306 308 300 292 286 282 280 276 264 266 260 260 259 257 254 251 247 249 247 246 247 247 246 243
283 285 295 301 310 310 306 310 315 312 301 301 297 301 310 317 317 316 310 303 307 308 300 290 283 281 277 274 264 264 261 256 255 252 251 251 249 250 247 248 247 248 240
281 287 297 302 302 304 305 304 299 296 296 296 297 300 304 308 309 307 306 299 292 295 302 304 296 285 287 284 273 265 262 260 260 257 254 253 250 248 249 248 249 239 229
249 267 282 290 287 280 277 278 284 290 293 294 296 296 296 298 299 299 301 303 307 304 296 299 300 296 295 292 293 282 265 262 258 260 259 260 253 251 244 241 242 230 226
294 298 298 301 302 297 290 289 296 302 303 304 303 301 299 300 299 297 297 300 302 300 300 302 306 302 302 292 291 295 288 265 255 259 260 253 256 250 245 236 233 230 225
300 301 303 304 307 309 308 309 309 306 303 302 303 305 304 302 302 299 299 301 301 295 291 286 285 289 291 297 301 298 289 286 276 255 261 255 254 249 236 233 228 224 223
309 311 311 312 313 313 312 311 310 308 305 303 306 307 306 305 304 305 303 301 299 302 295 288 292 288 280 280 281 283 283 281 279 260 256 254 253 249 240 233 230 226 225